Regional Weather Roundup
Issued by NWS

Home | Current Version | Previous Version | Text Only | Print | Product List | Glossary On
Versions: 1 2 3 4 5 6 7 8 9 10 11 12 13 14 15 16 17 18 19 20 21 22 23 24 25 26 27 28 29 30 31 32 33 34 35 36 37 38 39 40 41 42 43 44 45 46 47 48 49 50
000
ASUS43 KDTX 221910
RWRMI
MICHIGAN HOURLY REGIONAL WEATHER ROUNDUP
NATIONAL WEATHER SERVICE DETROIT/PONTIAC MI
300 PM EDT FRI SEP 22 2017

NOTE: "FAIR" INDICATES FEW OR NO CLOUDS BELOW 12,000 FEET WITH NO
SIGNIFICANT WEATHER AND/OR OBSTRUCTION TO VISIBILITY.

MIZ047>049-052>055-059>063-066>070-074>076-081>083-222000-
SOUTHEAST LOWER MICHIGAN

CITY           SKY/WX    TMP DP  RH WIND       PRES   REMARKS
ADRIAN         SUNNY     91  66  43 E5        30.09F HX  93
ALMA           MOSUNNY   93  60  32 S10       30.07F HX  92
ANN ARBOR      SUNNY     91  68  46 CALM      30.09F HX  95
BAD AXE        SUNNY     88  66  47 S5        30.09F HX  91
CARO           MOSUNNY   91  65  42 SW5       30.07F HX  93
DETROIT CITY   SUNNY     86  67  52 E6        30.10F
DETROIT        MOSUNNY   87  70  56 S5        30.10F HX  92
FLINT          MOSUNNY   91  67  44 CALM      30.09F HX  94
GROSSE ILE     SUNNY     78  68  69 S7        30.09F
HILLSDALE      PTSUNNY   88  66  48 W5        30.10F HX  90
HOWELL         SUNNY     90  65  43 SE5       30.10F HX  92

CITY           SKY/WX    TMP DP  RH WIND       PRES   REMARKS
JACKSON        MOSUNNY   92  64  39 CALM      30.09F HX  93
LAMBERTVILLE   SUNNY     87  68  53 SE7       30.09F HX  90
LANSING        SUNNY     92  66  42 NE3       30.09F HX  94
LAPEER         FAIR      91  65  41 S5        30.10F HX  92
MASON          MOSUNNY   90  67  47 CALM      30.09F HX  92
MONROE         SUNNY     85  64  48 SE6       30.09F
MT. CLEMENS    MOSUNNY   85  68  57 SE6       30.09F
PONTIAC        MOSUNNY   89  66  46 VRB5      30.09F HX  91
PORT HOPE        N/A     76  69  79 SE8       30.07F
PORT HURON     SUNNY     88  68  51 S7        30.10F HX  91
TRI CITIES     SUNNY     90  70  51 S9        30.07F HX  95
MIDLAND        FAIR      92  67  42 SE5       30.06F HX  95
TROY           SUNNY     90  67  46 E7        30.11F HX  92
SAGINAW HB     SUNNY     91  64  40 SW3       30.07F HX  93
$$
MIZ043>046-050>051-056>058-064>065-071>073-077>080-222000-
SOUTHWEST LOWER MICHIGAN

CITY           SKY/WX    TMP DP  RH WIND       PRES   REMARKS
BATTLE CREEK   SUNNY     91  66  43 S5        30.10F HX  93
BENTON HARBOR  SUNNY     90  64  42 VRB6      30.07F HX  91
BIG RAPIDS     MOSUNNY   91  62  38 W7        30.07F HX  91
COLDWATER      MOSUNNY   90  61  38 CALM      30.09F HX  90
FREMONT        FAIR      92  62  36 SW12      30.06F HX  92
HOLLAND        SUNNY     92  65  40 W8        30.08F HX  94
GRAND RAPIDS   MOSUNNY   94  64  37 SW8       30.07F HX  95
IONIA          FAIR      92  62  36 S5        30.07S HX  92
KALAMAZOO      SUNNY     92  62  36 VRB5      30.08F HX  92
LUDINGTON      SUNNY     84  68  58 SW8       30.06R
MARSHALL       MOSUNNY   90  66  43 S6        30.09S HX  92
MOUNT PLEASANT MOSUNNY   94  63  34 S5        30.06S HX  95
MUSKEGON       MOSUNNY   89  66  46 SW8       30.07F HX  91
SOUTH HAVEN    SUNNY     91  63  39 W5        30.07F HX  92
$$
MIZ016>042-222000-
NORTHERN LOWER MICHIGAN

CITY           SKY/WX    TMP DP  RH WIND       PRES   REMARKS
ALPENA         MOSUNNY   91  72  53 SW7       30.04F HX  98
BEAVER ISLAND  MOSUNNY   84  68  58 SW12G21   30.01F
BELLAIRE       SUNNY     91  63  38 SW5       30.03S HX  92
CADILLAC       SUNNY     93  62  35 SW9       30.08S HX  93
CHARLEVOIX     MOSUNNY   90  67  45 S9        30.05S HX  93
FRANKFORT      SUNNY     85  69  59 S10G17    30.04F
GAYLORD        SUNNY     89  65  44 S15G22    30.07S HX  91
GRAYLING       SUNNY     90  64  41 SW7       30.08S HX  91
HARBOR SPRINGS SUNNY     89  66  46 SW6       30.02S HX  91
HOUGHTON LAKE  SUNNY     90  66  45 SW8       30.08F HX  92
MANISTEE       SUNNY     90  70  51 S10       30.03F HX  95
OSCODA         SUNNY     89  69  51 S12G21    30.06S HX  93
PELLSTON       SUNNY     90  67  46 S8        30.02S HX  93
ROGERS CITY    PTSUNNY   91  69  48 SW8       30.03S HX  96
TRAVERSE CITY  PTSUNNY   93  65  39 SW10      30.01S HX  95
$$
MIZ007>008-015-222000-
EASTERN UPPER MICHIGAN

CITY           SKY/WX    TMP DP  RH WIND       PRES   REMARKS
KINROSS        SUNNY     85  71  63 SW8       30.02S HX  90
MACKINAC ISLAN SUNNY     84  67  56 W3        30.02S
NEWBERRY       CLOUDY    80  72  77 S10G17    30.00S
S. S. MARIE    MOSUNNY   87  72  60 SW9       30.00S HX  93
MUNISING         N/A     67  66  97 W9G17     30.09R
$$
MIZ004>006-011>014-085-222000-
CENTRAL UPPER MICHIGAN

CITY           SKY/WX    TMP DP  RH WIND       PRES   REMARKS
MANISTIQUE     CLOUDY    72  65  81 S8        30.00S
ESCANABA       PTSUNNY   78  70  76 SW9       29.99R
MENOMINEE      CLOUDY    86  71  60 SW10      29.99R HX  91
SAWYER-GWINN   LGT RAIN  66  63  88 NW10      30.01F
$$
MIZ001>003-009>011-084-222000-
WESTERN UPPER MICHIGAN

CITY           SKY/WX    TMP DP  RH WIND       PRES   REMARKS
IRON MOUNTAIN  TSTM      66  63  90 W3        30.05F FOG
HOUGHTON       LGT RAIN  66  63  90 S20G29    29.90F
COPPER HARBOR    N/A     66  62  87 SW9       29.87F
IRONWOOD       CLOUDY    69  63  81 CALM      29.92F
$$

ABBREVIATIONS USED IN REMARKS
   TC - TEMPERATURE IN CELSIUS
  WCI - WIND CHILL INDEX
   HX - HEAT INDEX
  VSB - VISIBILITY





USA.gov is the U.S. government's official web portal to all federal, state and local government web resources and services.